Location: Cold Norton
(51.6667°N, 0.6667°E)
Time: 23:59:00
(UTC+00:00)

Okean 2 Rocket - Visible Passes

Search period start: 15 February 2026 00:00
Search period end: 25 February 2026 00:00
Orbit: 611 x 634 km, 82.5° (Epoch: 15 February)

Date Brightness Start Highest point End Pass type
(mag) Time Alt. Az. Time Alt. Az. Time Alt. Az.
15 Feb 6.5 05:33:31 10° ESE 05:35:29 13° E 05:37:27 10° NE visible
15 Feb 5.6 18:50:18 10° NW 18:53:48 24° W 18:57:16 10° SW visible
16 Feb 6.0 05:50:15 10° SE 05:53:38 21° E 05:57:00 10° NE visible
16 Feb 6.4 19:09:40 10° NW 19:11:58 14° W 19:14:14 10° WSW visible
17 Feb 4.9 06:07:49 10° SSE 06:11:52 36° E 06:15:56 10° NNE visible
17 Feb 3.7 17:48:43 10° NNW 17:53:04 62° W 17:57:22 10° S visible
18 Feb 3.7 06:25:49 10° S 06:30:12 63° E 06:34:37 10° NNE visible
18 Feb 5.0 18:07:24 10° NNW 18:11:23 35° W 18:15:21 10° SSW visible
19 Feb 6.4 05:08:53 10° ESE 05:11:18 15° E 05:13:43 10° NE visible
19 Feb 6.0 18:26:22 10° NW 18:29:38 21° W 18:32:52 10° SW visible
20 Feb 5.7 05:25:54 10° SE 05:29:28 24° E 05:33:02 10° NE visible
20 Feb 6.6 18:46:00 10° WNW 18:47:46 12° W 18:49:31 10° WSW visible
21 Feb 4.6 05:43:35 10° SSE 05:47:44 41° E 05:51:54 10° NNE visible
22 Feb 3.4 06:01:41 10° S 06:06:06 72° E 06:10:31 10° NNE visible
23 Feb 6.2 04:44:21 10° ESE 04:47:07 16° E 04:49:53 10° NE visible
23 Feb 3.1 06:20:09 10° SSW 06:24:33 65° WNW 06:28:58 10° N visible
23 Feb 6.2 18:02:27 10° NW 18:05:26 18° W 18:08:25 10° SW visible
24 Feb 5.3 05:01:34 10° SSE 05:05:18 27° E 05:09:03 10° NNE visible
24 Feb 6.8 18:22:37 10° WNW 18:23:33 11° W 18:24:29 10° W visible
